UWE-4

Last updated on Thu Oct 30 2025 00:03:10 GMT+0000 (Coordinated Universal Time)

1 43880U 18111E 25302.50599816 .00028509 00000+0 93582-3 0 9993 2 43880 97.5821 217.9134 0013570 73.5031 286.7700 15.31464144375300
UTC large
Height (km)
Speed (km/s)
/
Latitude / Longitude
Inclination (degrees)
Orbital Period (minutes)
Azimuth
Elevation
Range (km)
Doppler Factor

Next 0 passes for location: London (51.5072 / 0.1276)

Sorry there are no passes over London.